GW3210 Weather Reports


time (UTC)temp
C
wind
direction
speed
KPH
gust
KPH
rain 1hr
cm
rain 24hr
cm
rain mn
cm
humidity
%
barometer
mb
20260902164615 16 113 3.2 4.8 0.00 0.00 0.00 58 1008.8
20260902163615 16 113 1.6 3.2 0.00 0.00 0.00 59 1008.8
20260902162615 16 135 1.6 3.2 0.00 0.00 0.00 58 1008.9
20260902161615 16 68 3.2 6.4 0.00 0.00 0.00 58 1008.9
20260902160636 16 113 1.6 3.2 0.00 0.00 0.00 59 1008.9
20260902155615 16 90 4.8 9.7 0.00 0.00 0.00 59 1008.9
20260902154615 16 90 4.8 11.3 0.00 0.00 0.00 59 1009.0
20260902153615 15 90 3.2 6.4 0.00 0.00 0.00 60 1009.2
20260902152615 15 90 3.2 6.4 0.00 0.00 0.00 60 1009.2
20260902151635 15 90 4.8 9.7 0.00 0.00 0.00 62 1009.3
20260902150615 15 90 4.8 11.3 0.00 0.00 0.00 62 1009.3
20260902145635 15 90 4.8 8.0 0.00 0.00 0.00 62 1009.5
20260902144619 15 113 1.6 3.2 0.00 0.00 0.00 62 1009.5
20260902143617 15 90 3.2 3.2 0.00 0.00 0.00 62 1009.7
20260902142637 15 68 3.2 6.4 0.00 0.00 0.00 62 1009.9
20260902141617 15 90 1.6 3.2 0.00 0.00 0.00 62 1010.0
20260902140715 15 90 3.2 6.4 0.00 0.00 0.00 61 1010.2
20260902135617 15 90 3.2 6.4 0.00 0.00 0.00 62 1010.3
20260902134617 15 90 1.6 4.8 0.00 0.00 0.00 62 1010.4
20260902133617 14 90 1.6 3.2 0.00 0.00 0.00 62 1010.5
20260902132619 14 90 3.2 4.8 0.00 0.00 0.00 62 1010.7
20260902131617 15 90 1.6 4.8 0.00 0.00 0.00 62 1010.7
20260902130619 15 90 1.6 3.2 0.00 0.00 0.00 62 1010.9
20260902125617 15 90 1.6 6.4 0.00 0.00 0.00 62 1011.0
20260902124617 15 0.0 0.0 0.00 0.00 0.00 62 1011.2
20260902123617 15 113 1.6 4.8 0.00 0.00 0.00 62 1011.4
20260902122617 15 113 1.6 3.2 0.00 0.00 0.00 62 1011.6
20260902121637 15 113 3.2 4.8 0.00 0.00 0.00 62 1011.6
20260902120617 15 113 1.6 1.6 0.00 0.00 0.00 62 1011.7
20260902115617 15 0.0 1.6 0.00 0.00 0.00 62 1011.9
20260902114619 15 0.0 1.6 0.00 0.00 0.00 62 1011.8
20260902113617 15 113 3.2 4.8 0.00 0.00 0.00 61 1012.0
20260902112616 15 0.0 0.0 0.00 0.00 0.00 61 1012.1
20260902111616 15 135 1.6 3.2 0.00 0.00 0.00 61 1012.1
20260902110616 15 113 1.6 3.2 0.00 0.00 0.00 61 1012.3
20260902105617 15 135 3.2 4.8 0.00 0.00 0.00 61 1012.3
20260902104656 15 135 1.6 3.2 0.00 0.00 0.00 61 1012.4
20260902103638 15 0.0 0.0 0.00 0.00 0.00 61 1012.4
20260902102616 15 0.0 0.0 0.00 0.00 0.00 61 1012.5
20260902101616 15 0.0 1.6 0.00 0.00 0.00 60 1012.6
20260902100616 15 158 3.2 8.0 0.00 0.00 0.00 60 1012.5
20260902095616 15 135 1.6 4.8 0.00 0.00 0.00 61 1012.6
20260902094616 15 180 1.6 3.2 0.00 0.00 0.00 61 1012.7
20260902093617 15 135 4.8 11.3 0.00 0.00 0.00 62 1012.9
20260902092616 15 180 3.2 4.8 0.00 0.00 0.00 62 1012.8
20260902091617 15 158 3.2 6.4 0.00 0.00 0.00 61 1013.0
20260902090616 15 180 6.4 11.3 0.00 0.00 0.00 61 1013.1
20260902085636 15 135 4.8 8.0 0.00 0.00 0.00 61 1013.1
20260902084617 15 158 6.4 8.0 0.00 0.00 0.00 61 1013.1
20260902083617 15 158 4.8 6.4 0.00 0.00 0.00 61 1013.1
20260902082616 15 158 1.6 4.8 0.00 0.00 0.00 60 1013.1
20260902081616 16 158 3.2 6.4 0.00 0.00 0.00 60 1013.0
20260902080636 16 158 1.6 3.2 0.00 0.00 0.00 60 1013.0
20260902075616 16 0.0 1.6 0.00 0.00 0.00 59 1013.1
20260902074617 16 180 4.8 8.0 0.00 0.00 0.00 59 1013.2
20260902073616 16 135 1.6 3.2 0.00 0.00 0.00 59 1013.2
20260902065617 16 158 3.2 6.4 0.00 0.00 0.00 58 1013.5
20260902064617 16 180 3.2 6.4 0.00 0.00 0.00 58 1013.6
20260902063637 16 158 3.2 6.4 0.00 0.00 0.00 58 1013.6
20260902062617 16 135 1.6 3.2 0.00 0.00 0.00 58 1013.6
20260902061617 16 158 4.8 8.0 0.00 0.00 0.00 58 1013.5
20260902060616 16 158 3.2 3.2 0.00 0.00 0.00 57 1013.5
20260902055617 16 158 4.8 6.4 0.00 0.00 0.00 57 1013.7
20260902054637 16 203 3.2 8.0 0.00 0.00 0.00 57 1013.8
20260902053617 16 225 3.2 4.8 0.00 0.00 0.00 57 1013.8
20260902052617 16 158 1.6 6.4 0.00 0.00 0.00 57 1013.9
20260902051617 16 158 3.2 9.7 0.00 0.00 0.00 56 1013.7
20260902050617 16 158 1.6 3.2 0.00 0.00 0.00 56 1013.6
20260902045717 17 203 1.6 4.8 0.00 0.00 0.00 56 1013.5
20260902044617 17 180 3.2 8.0 0.00 0.00 0.00 56 1013.5
20260902043638 17 135 3.2 4.8 0.00 0.00 0.00 55 1013.5
20260902042617 17 270 4.8 8.0 0.00 0.00 0.00 55 1013.4
20260902041617 17 270 6.4 9.7 0.00 0.00 0.00 55 1013.4
20260902040617 17 248 1.6 3.2 0.00 0.00 0.00 55 1013.5
20260902035617 17 225 3.2 4.8 0.00 0.00 0.00 54 1013.3
20260902034617 17 248 3.2 4.8 0.00 0.00 0.00 54 1013.2
20260902033656 17 270 8.0 12.9 0.00 0.00 0.00 53 1013.1
20260902032617 17 270 6.4 11.3 0.00 0.00 0.00 53 1013.1
20260902031616 17 203 3.2 6.4 0.00 0.00 0.00 53 1013.2
20260902030617 17 248 3.2 4.8 0.00 0.00 0.00 52 1013.2
20260902025616 18 248 4.8 8.0 0.00 0.00 0.00 52 1013.2
20260902024616 18 225 4.8 9.7 0.00 0.00 0.00 52 1013.1
20260902023616 18 248 6.4 12.9 0.00 0.00 0.00 52 1013.0
20260902022616 18 180 1.6 3.2 0.00 0.00 0.00 51 1013.0
20260902021616 18 225 1.6 4.8 0.00 0.00 0.00 50 1012.9
20260902020617 18 225 4.8 6.4 0.00 0.00 0.00 50 1013.0
20260902015617 18 248 4.8 6.4 0.00 0.00 0.00 50 1013.0
20260902014616 18 0.0 1.6 0.00 0.00 0.00 50 1012.8
20260902013616 18 293 3.2 11.3 0.00 0.00 0.00 50 1012.9
20260902012616 18 225 4.8 6.4 0.00 0.00 0.00 49 1012.9
20260902011636 18 270 4.8 11.3 0.00 0.00 0.00 48 1012.9
20260902010616 19 225 6.4 9.7 0.00 0.00 0.00 48 1012.9
20260902005616 19 248 1.6 3.2 0.00 0.00 0.00 49 1012.6
20260902004656 19 270 3.2 6.4 0.00 0.00 0.00 49 1012.6
20260902003616 20 270 3.2 4.8 0.00 0.00 0.00 48 1012.5
20260902002618 20 270 3.2 6.4 0.00 0.00 0.00 47 1012.5
20260902001616 20 315 3.2 8.0 0.00 0.00 0.00 47 1012.5
20260902000617 20 293 4.8 9.7 0.00 0.00 0.00 48 1012.4
20260901235616 20 270 6.4 8.0 0.00 0.00 0.00 47 1012.7
20260901234636 20 203 4.8 8.0 0.00 0.00 0.00 47 1012.7
20260901233616 20 248 6.4 11.3 0.00 0.00 0.00 48 1012.6
20260901232616 20 225 1.6 3.2 0.00 0.00 0.00 49 1012.8
20260901231616 20 293 3.2 4.8 0.00 0.00 0.00 49 1012.9
20260901230616 20 293 8.0 11.3 0.00 0.00 0.00 48 1012.9
20260901225616 20 248 3.2 6.4 0.00 0.00 0.00 49 1012.9
20260901224636 19 270 4.8 11.3 0.00 0.00 0.00 50 1012.9
20260901223616 19 248 4.8 8.0 0.00 0.00 0.00 49 1013.0
20260901222616 19 248 6.4 9.7 0.00 0.00 0.00 49 1013.0
20260901221616 20 315 4.8 6.4 0.00 0.00 0.00 50 1013.0
20260901220616 19 293 6.4 11.3 0.00 0.00 0.00 50 1013.0
20260901215616 19 270 4.8 6.4 0.00 0.00 0.00 51 1012.9
20260901214616 18 248 3.2 4.8 0.00 0.00 0.00 52 1012.9
20260901213636 18 225 3.2 4.8 0.00 0.00 0.00 53 1013.0
20260901212616 18 248 4.8 9.7 0.00 0.00 0.00 53 1013.1
20260901211616 18 180 1.6 3.2 0.00 0.00 0.00 55 1013.2
20260901210616 17 158 1.6 3.2 0.00 0.00 0.00 55 1013.2
20260901205615 17 180 1.6 3.2 0.00 0.00 0.00 55 1013.2
20260901204616 17 135 3.2 4.8 0.00 0.00 0.00 55 1013.2
20260901203658 17 158 1.6 3.2 0.00 0.00 0.00 54 1013.2
20260901202616 18 135 4.8 6.4 0.00 0.00 0.00 54 1013.3
20260901201616 18 135 6.4 8.0 0.00 0.00 0.00 54 1013.3
20260901200616 18 180 1.6 3.2 0.00 0.00 0.00 54 1013.3
20260901195636 17 180 1.6 3.2 0.00 0.00 0.00 57 1013.3
20260901194616 17 158 4.8 6.4 0.00 0.00 0.00 56 1013.5
20260901193616 17 203 1.6 1.6 0.00 0.00 0.00 55 1013.6
20260901192615 17 248 4.8 9.7 0.00 0.00 0.00 57 1013.7
20260901191616 17 270 4.8 6.4 0.00 0.00 0.00 58 1013.7
20260901190615 17 158 4.8 6.4 0.00 0.00 0.00 59 1013.8
20260901185618 17 0.0 1.6 0.00 0.00 0.00 59 1013.9
20260901184616 16 225 3.2 6.4 0.00 0.00 0.00 59 1013.9
20260901183615 16 270 3.2 4.8 0.00 0.00 0.00 60 1014.0
20260901182635 16 270 1.6 3.2 0.00 0.00 0.00 61 1013.9
20260901181616 16 270 6.4 9.7 0.00 0.00 0.00 64 1014.0
20260901180615 15 270 3.2 8.0 0.00 0.00 0.00 64 1014.0
20260901175635 15 180 3.2 6.4 0.00 0.00 0.00 66 1014.1
20260901174615 15 158 1.6 4.8 0.00 0.00 0.00 67 1014.2
20260901173615 15 225 3.2 4.8 0.00 0.00 0.00 68 1014.0
20260901172615 14 248 1.6 3.2 0.00 0.00 0.00 68 1014.0
20260901171615 14 158 4.8 6.4 0.00 0.00 0.00 68 1014.0
20260901170615 14 203 1.6 3.2 0.00 0.00 0.00 68 1014.0
20260901165635 14 158 4.8 6.4 0.00 0.00 0.00 68 1013.9